Location: Unspecified
(54.1780°N, 0.0000°E)
Time: 23:48:39
(UTC+00:00)

Transit 2A - Pass Details

Date: 17 June 2019
Orbit: 594 x 964 km, 66.7° (Epoch: 19 July)

Event Time Altitude Azimuth Distance (km) Brightness Sun altitude
Rises 06:46:15 0° 302° (WNW) 3,622 9.1 25.3°
Reaches altitude 10° 06:49:19 10° 315° (NW) 2,640 8.5 25.8°
Maximum altitude 06:54:26 26° 11° (N) 1,664 8.1 26.5°
Drops below altitude 10° 06:59:14 10° 68° (ENE) 2,458 10.0 27.2°
Sets 07:01:59 0° 81° (E) 3,325 10.6 27.6°
